User: anonymous
Location: Caltech
(34.1382°N, 118.1253°W)
Time: 13:14:00
(UTC-07:00)
Language:

Spot 4 Rocket - Orbit

View from above orbital plane
View from above orbital plane
View from above satellite
View from above satellite

Ground track
Ground track

The orbit data is extracted from the following two-line orbital elements,

1 25261U 98017B   14242.48247484  .00000201  00000-0  89183-4 0  6594
2 25261 098.4143 194.2199 0002463 220.8853 248.3101 14.32972588858655
Epoch (UTC): 30 August 2014 11:34:45
Eccentricity: 0.0002463
inclination: 98.4143°
perigee height: 780 km
apogee height: 783 km
right ascension of ascending node: 194.2199°
argument of perigee: 220.8853°
revolutions per day: 14.32972588
mean anomaly at epoch: 248.3101°
orbit number at epoch: 85865

The dashed part of the orbit path shows where the satellite is in the earth's shadow,  

DLR